Satellite: NOAA-10 Catalog number: 16969 Epoch time: 11173.67717469 Element set: 0545 Inclination: 098.6184 deg RA of node: 203.3893 deg Eccentricity: 0.0011682 Arg of perigee: 206.0557 deg Mean anomaly: 154.0033 deg Mean motion: 14.27465908 rev/day Decay rate: 4.6e-07 rev/day^2 Epoch rev: 28843 Checksum: 321
Satellite: NOAA-11 Catalog number: 19531 Epoch time: 11173.78697994 Element set: 0542 Inclination: 098.7514 deg RA of node: 261.1448 deg Eccentricity: 0.0011421 Arg of perigee: 168.3511 deg Mean anomaly: 191.7928 deg Mean motion: 14.14919442 rev/day Decay rate: 2.24e-06 rev/day^2 Epoch rev: 17354 Checksum: 312
Satellite: NOAA-12 Catalog number: 21263 Epoch time: 11173.98172254 Element set: 0054 Inclination: 098.7477 deg RA of node: 191.8163 deg Eccentricity: 0.0012474 Arg of perigee: 165.9556 deg Mean anomaly: 194.1973 deg Mean motion: 14.25719806 rev/day Decay rate: 3.3e-07 rev/day^2 Epoch rev: 04523 Checksum: 311
Satellite: MET-3/5 Catalog number: 21655 Epoch time: 11173.83156228 Element set: 0141 Inclination: 082.5572 deg RA of node: 046.7873 deg Eccentricity: 0.0014110 Arg of perigee: 137.9432 deg Mean anomaly: 222.2773 deg Mean motion: 13.17031602 rev/day Decay rate: 5.1e-07 rev/day^2 Epoch rev: 95446 Checksum: 275
Satellite: MET-2/21 Catalog number: 22782 Epoch time: 11173.82456501 Element set: 0129 Inclination: 082.5492 deg RA of node: 318.4038 deg Eccentricity: 0.0024094 Arg of perigee: 083.6857 deg Mean anomaly: 276.7061 deg Mean motion: 13.83659406 rev/day Decay rate: 9.2e-07 rev/day^2 Epoch rev: 89933 Checksum: 323
Satellite: OKEAN-4 Catalog number: 23317 Epoch time: 11173.96670442 Element set: 0594 Inclination: 082.5398 deg RA of node: 007.7416 deg Eccentricity: 0.0023779 Arg of perigee: 098.5484 deg Mean anomaly: 261.8432 deg Mean motion: 14.83090400 rev/day Decay rate: 3.10e-06 rev/day^2 Epoch rev: 90140 Checksum: 298
Satellite: NOAA-14 Catalog number: 23455 Epoch time: 11173.90954552 Element set: 0540 Inclination: 098.8523 deg RA of node: 256.4885 deg Eccentricity: 0.0008528 Arg of perigee: 264.8119 deg Mean anomaly: 095.2080 deg Mean motion: 14.13823015 rev/day Decay rate: 4.6e-07 rev/day^2 Epoch rev: 84988 Checksum: 322
Satellite: NOAA-15 Catalog number: 25338 Epoch time: 11173.92309387 Element set: 0860 Inclination: 098.6539 deg RA of node: 159.9858 deg Eccentricity: 0.0011692 Arg of perigee: 076.9272 deg Mean anomaly: 283.3226 deg Mean motion: 14.24925921 rev/day Decay rate: 2.41e-06 rev/day^2 Epoch rev: 68154 Checksum: 338
Satellite: RESURS Catalog number: 25394 Epoch time: 11173.93842329 Element set: 0838 Inclination: 098.2983 deg RA of node: 176.6434 deg Eccentricity: 0.0000735 Arg of perigee: 169.3339 deg Mean anomaly: 190.7856 deg Mean motion: 14.24234835 rev/day Decay rate: -3.3e-07 rev/day^2 Epoch rev: 67312 Checksum: 322
Satellite: FENGYUN1 Catalog number: 25730 Epoch time: 11173.92474677 Element set: 0369 Inclination: 098.8169 deg RA of node: 134.9942 deg Eccentricity: 0.0023046 Arg of perigee: 301.4798 deg Mean anomaly: 058.4118 deg Mean motion: 14.08645122 rev/day Decay rate: 9.13e-06 rev/day^2 Epoch rev: 62387 Checksum: 323
Satellite: OKEAN-0 Catalog number: 25860 Epoch time: 11173.93268081 Element set: 0348 Inclination: 097.8854 deg RA of node: 140.2197 deg Eccentricity: 0.0001258 Arg of perigee: 038.1983 deg Mean anomaly: 321.9314 deg Mean motion: 14.73795584 rev/day Decay rate: 1.13e-06 rev/day^2 Epoch rev: 64150 Checksum: 306
Satellite: NOAA-16 Catalog number: 26536 Epoch time: 11173.88494827 Element set: 0342 Inclination: 099.1387 deg RA of node: 204.5427 deg Eccentricity: 0.0010731 Arg of perigee: 021.7530 deg Mean anomaly: 338.4100 deg Mean motion: 14.12624726 rev/day Decay rate: -2.07e-06 rev/day^2 Epoch rev: 55416 Checksum: 287
Satellite: NOAA-17 Catalog number: 27453 Epoch time: 11173.72607734 Element set: 0331 Inclination: 098.3781 deg RA of node: 213.1826 deg Eccentricity: 0.0012561 Arg of perigee: 130.0010 deg Mean anomaly: 230.2289 deg Mean motion: 14.24284291 rev/day Decay rate: 6.8e-07 rev/day^2 Epoch rev: 46744 Checksum: 277
Satellite: NOAA-18 Catalog number: 28654 Epoch time: 11173.77098495 Element set: 0811 Inclination: 098.9958 deg RA of node: 124.9313 deg Eccentricity: 0.0015247 Arg of perigee: 088.5657 deg Mean anomaly: 271.7263 deg Mean motion: 14.11487611 rev/day Decay rate: 4.88e-06 rev/day^2 Epoch rev: 31371 Checksum: 342
Satellite: NOAA-19 Catalog number: 33591 Epoch time: 11173.76939019 Element set: 0002 Inclination: 098.8260 deg RA of node: 113.8301 deg Eccentricity: 0.0013809 Arg of perigee: 324.6040 deg Mean anomaly: 035.4230 deg Mean motion: 14.11176028 rev/day Decay rate: -8.0e-08 rev/day^2 Epoch rev: 12217 Checksum: 262
/EX SB KEPS @ AMSAT $ORB11174.M Orbital Elements 11174.MISC
HR AMSAT ORBITAL ELEMENTS FOR MANNED AND MISCELLANEOUS SATELLITES FROM WA5QGD FORT WORTH,TX June 23, 2011 Send Subscribe/unsubscribe to KEPS at http://www.amsat.org/mailman/listinfo/keps BID: ORB11174.M TO ALL RADIO AMATEURS BT
Satellite: HUBBLE Catalog number: 20580 Epoch time: 11172.77132387 Element set: 784 Inclination: 028.4728 deg RA of node: 346.5038 deg Eccentricity: 0.0003524 Arg of perigee: 168.1964 deg Mean anomaly: 191.8764 deg Mean motion: 15.01399279 rev/day Decay rate: 7.45e-06 rev/day^2 Epoch rev: 96034 Checksum: 322
Satellite: ISS Catalog number: 25544 Epoch time: 11173.84950508 Element set: 0587 Inclination: 051.6425 deg RA of node: 132.1734 deg Eccentricity: 0.0011045 Arg of perigee: 275.9893 deg Mean anomaly: 126.1217 deg Mean motion: 15.62102585 rev/day Decay rate: 8.727e-05 rev/day^2 Epoch rev: 72179 Checksum: 303
Satellite: CO-58 Catalog number: 28895 Epoch time: 11173.61609670 Element set: 0907 Inclination: 097.9645 deg RA of node: 049.7957 deg Eccentricity: 0.0017281 Arg of perigee: 200.6860 deg Mean anomaly: 159.3626 deg Mean motion: 14.60119380 rev/day Decay rate: 1.75e-06 rev/day^2 Epoch rev: 30103 Checksum: 326
Satellite: FALCON Catalog number: 30776 Epoch time: 11173.81610133 Element set: 0122 Inclination: 035.4348 deg RA of node: 312.7516 deg Eccentricity: 0.0000308 Arg of perigee: 056.6900 deg Mean anomaly: 303.3846 deg Mean motion: 15.04693454 rev/day Decay rate: 1.338e-05 rev/day^2 Epoch rev: 23589 Checksum: 271
Satellite: MAST Catalog number: 31126 Epoch time: 11173.88616217 Element set: 0198 Inclination: 097.8946 deg RA of node: 200.7906 deg Eccentricity: 0.0095329 Arg of perigee: 152.3388 deg Mean anomaly: 208.2928 deg Mean motion: 14.53759651 rev/day Decay rate: 1.64e-06 rev/day^2 Epoch rev: 22191 Checksum: 320
Satellite: CAPE1 Catalog number: 31130 Epoch time: 11173.60212111 Element set: 0207 Inclination: 097.8982 deg RA of node: 197.2817 deg Eccentricity: 0.0102545 Arg of perigee: 163.9411 deg Mean anomaly: 196.5088 deg Mean motion: 14.52406237 rev/day Decay rate: 2.25e-06 rev/day^2 Epoch rev: 22142 Checksum: 265
Satellite: COMPASS Catalog number: 32787 Epoch time: 11173.67805137 Element set: 0019 Inclination: 097.8467 deg RA of node: 237.3922 deg Eccentricity: 0.0015973 Arg of perigee: 154.4477 deg Mean anomaly: 205.7592 deg Mean motion: 14.82457313 rev/day Decay rate: 9.17e-06 rev/day^2 Epoch rev: 17037 Checksum: 325
Satellite: AAUSAT2 Catalog number: 32788 Epoch time: 11173.70854488 Element set: 0010 Inclination: 097.8471 deg RA of node: 237.6488 deg Eccentricity: 0.0015690 Arg of perigee: 155.2124 deg Mean anomaly: 204.9813 deg Mean motion: 14.82644782 rev/day Decay rate: 7.20e-06 rev/day^2 Epoch rev: 17039 Checksum: 314
Satellite: DO-64 Catalog number: 32789 Epoch time: 11173.78383139 Element set: 0027 Inclination: 097.8569 deg RA of node: 238.7365 deg Eccentricity: 0.0015966 Arg of perigee: 152.5075 deg Mean anomaly: 207.6972 deg Mean motion: 14.83126390 rev/day Decay rate: 1.030e-05 rev/day^2 Epoch rev: 17041 Checksum: 329
Satellite: CO-66 Catalog number: 32791 Epoch time: 11173.62835270 Element set: 0012 Inclination: 097.8478 deg RA of node: 237.2831 deg Eccentricity: 0.0016479 Arg of perigee: 153.8346 deg Mean anomaly: 206.3723 deg Mean motion: 14.82145489 rev/day Decay rate: 9.36e-06 rev/day^2 Epoch rev: 17031 Checksum: 318
Satellite: RS-30 Catalog number: 32953 Epoch time: 11173.94270571 Element set: 0842 Inclination: 082.5008 deg RA of node: 159.1450 deg Eccentricity: 0.0019752 Arg of perigee: 018.7297 deg Mean anomaly: 341.4505 deg Mean motion: 12.43013812 rev/day Decay rate: 1.0e-07 rev/day^2 Epoch rev: 13980 Checksum: 273
Satellite: TACSAT-3 Catalog number: 35001 Epoch time: 11173.92362403 Element set: 0626 Inclination: 040.4529 deg RA of node: 137.9046 deg Eccentricity: 0.0023145 Arg of perigee: 255.9084 deg Mean anomaly: 103.9161 deg Mean motion: 15.49235746 rev/day Decay rate: 1.2589e-04 rev/day^2 Epoch rev: 11797 Checksum: 295
Satellite: PHARMSAT Catalog number: 35002 Epoch time: 11173.95681906 Element set: 0589 Inclination: 040.4674 deg RA of node: 135.4880 deg Eccentricity: 0.0025036 Arg of perigee: 262.2519 deg Mean anomaly: 097.5458 deg Mean motion: 15.48788478 rev/day Decay rate: 1.0064e-04 rev/day^2 Epoch rev: 11800 Checksum: 312
Satellite: HAWKSAT1 Catalog number: 35003 Epoch time: 11172.87388259 Element set: 0662 Inclination: 040.4509 deg RA of node: 112.3862 deg Eccentricity: 0.0021804 Arg of perigee: 273.9470 deg Mean anomaly: 085.8944 deg Mean motion: 15.66342372 rev/day Decay rate: 5.6169e-04 rev/day^2 Epoch rev: 11816 Checksum: 308
Satellite: CP6 Catalog number: 35004 Epoch time: 11173.95278614 Element set: 0662 Inclination: 040.4515 deg RA of node: 096.4551 deg Eccentricity: 0.0020801 Arg of perigee: 281.2094 deg Mean anomaly: 078.6569 deg Mean motion: 15.73991067 rev/day Decay rate: 1.00286e-03 rev/day^2 Epoch rev: 11842 Checksum: 301
